Location: Miss�
(46.9484°N, 0.1922°W)
Time: 02:42:21
(UTC+00:00)

SME Rocket - Pass Details

Date: 02 March 2021
Orbit: 550 x 2652 km, 99.9° (Epoch: 12 April)

Event Time Altitude Azimuth Distance (km) Brightness Sun altitude
Rises 19:27:16 0° 16° (NNE) 5,077 7.7 -17.7°
Reaches altitude 10° 19:30:55 10° 20° (NNE) 3,759 6.9 -18.3°
Maximum altitude 19:39:12 59° 99° (E) 1,258 4.2 -19.7°
Drops below altitude 10° 19:44:33 10° 179° (S) 2,456 6.0 -20.6°
Sets 19:46:31 0° 183° (S) 3,215 6.6 -20.9°
